Flag for Hungary Weather past 2 weeks in Miskolc, Hungary

Now
43 °F

Light rain. Overcast.


Feels Like: 43 °F
Forecast: 38 / 48 °F
Wind: 2 mph from North

Location: Miskolc

Current Time: Mar 31, 2015 at 9:02:17 PM

Latest Report: Mar 31, 2015 at 8:00 PM


Visibility: 2 mi

Pressure: 29.50 "Hg

Humidity: 89%

Dew point: 40 °F

Location of MiskolcLocation

Historic Weather in Miskolc — Graph

°F

Miskolc temperature yesterday

Maximum temperature yesterday: 54 °F (at 3:00 PM)
Minimum temperature yesterday: 44 °F (at 7:00 PM)
Average temperature yesterday: 49 °F

Past Weeks' High & Low Weather Summary

 TemperatureHumidityPressure
High71 °F (Mar 27, 3:00 PM)89% (Mar 31, 8:00 PM)30.62 "Hg (Mar 31, 8:00 PM)
Low28 °F (Mar 23, 6:00 AM)22% (Mar 23, 2:00 PM)29.47 "Hg (Mar 30, 1:00 PM)
Average47 °F56%30.02 "Hg
* Reported Mar 16 7:00 PM — Mar 31 8:00 PM, Miskolc, Weather by CustomWeather, © 2015

Note: Actual official high and low records may vary slightly from our data, if they occured in-between our weather recording intervals... More about our weather records

Advertising

Miskolc weather history for previous 24 hours

 ConditionsComfort  
Time TempWeatherWind HumidityBarometerVisibility
8:00 PM
Tue, Mar 31
43 °FLight rain. Overcast.2 mph89%29.50 "Hg2 mi
7:00 PM44 °FRain. Overcast.1 mph86%29.47 "Hg2 mi
6:00 PM46 °FRain. Overcast.3 mph74%29.47 "Hg5 mi
5:00 PM46 °FLight rain. Overcast.2 mph71%29.50 "Hg11 mi
4:00 PM48 °FOvercast.3 mph66%29.54 "Hg16 mi
3:00 PM42 °FLight rain. Overcast.2 mph80%29.59 "Hg12 mi
2:00 PM41 °FLight rain. Overcast.3 mph76%29.65 "Hg9 mi
1:00 PM44 °FLight rain. Overcast.3 mph55%29.66 "Hg25 mi
12:00 PM46 °FOvercast.3 mph40%29.69 "Hg28 mi
11:00 AM47 °FOvercast.5 mph37%29.71 "Hg28 mi
10:00 AM47 °FOvercast.2 mph42%29.72 "Hg25 mi
9:00 AM46 °FOvercast.3 mph49%29.75 "Hg25 mi
8:00 AM43 °FScattered clouds.2 mph55%29.76 "Hg22 mi
7:00 AM40 °FPassing clouds.3 mph61%29.76 "Hg19 mi
6:00 AM41 °FClear.2 mph59%29.77 "Hg19 mi
4:00 AM42 °FPassing clouds.2 mph55%29.76 "Hg19 mi
3:00 AM43 °FClear.5 mph50%29.74 "Hg19 mi
2:00 AM43 °FClear.6 mph53%29.73 "Hg19 mi
1:00 AM44 °FClear.6 mph55%29.71 "Hg19 mi
12:00 AM45 °FClear.6 mph53%29.68 "Hg19 mi
10:00 PM
Mon, Mar 30
45 °FClear.6 mph55%29.63 "Hg19 mi
9:00 PM46 °FPassing clouds.6 mph56%29.59 "Hg19 mi
Weather by CustomWeather, © 2015

See weather overviewHow to use our weather pages